Weather History for Fairhope, AL

Change the Weather History Date:

Monday, February 11, 2013

  Actual Average (KBFM) Record (KBFM)
Temperature  
Mean Temperature 66 °F -  
Max Temperature 71 °F 60 °F 75 °F (2000)
Min Temperature 60 °F 43 °F 25 °F (2011)
Growing Degree Days 16 (Base 50)    
Moisture  
Dew Point 64 °F    
Average Humidity 94    
Maximum Humidity 100    
Minimum Humidity 82    
Precipitation  
Precipitation 0.18 in - - ()
Sea Level Pressure  
Sea Level Pressure 30.06 in    
Wind  
Wind Speed 5 mph (NE)    
Max Wind Speed 16 mph    
Max Gust Speed 23 mph    
Visibility 5 miles    
Events Fog , Rain    
Averages and records for this station are not official NWS values.
T = Trace of Precipitation, MM = Missing Value Source: NWS Daily Summary

Daily Weather History Graph

Daily Weather History Graph

Search for Another Location

Airport:

Trip Planner

Search our weather history database for the weather conditions in past years. The results will help you decide how hot, cold, wet, or windy it might be!

Date:

Astronomy

Feb. 11, 2013 Rise Set
Actual Time 6:35 AM CST 5:36 PM CST
Civil Twilight 6:10 AM CST 6:01 PM CST
Nautical Twilight 5:42 AM CST 6:29 PM CST
Astronomical Twilight 5:13 AM CST 6:57 PM CST
Moon 7:09 AM CST (2/11) 7:20 PM CST (2/11)
Length of Visible Light 11h 51m
Length of Day
11h 01m
Waxing Crescent, 3% of the Moon is Illuminated
Feb 11
Waxing Crescent
Feb 17
First Quarter
Feb 25
Full
Mar 4
Last Quarter
Mar 11
New

Hourly Weather History & Observations

Time (CST) Temp. Dew Point Humidity Pressure Visibility Wind Dir Wind Speed Gust Speed Precip Events Conditions
12:15 AM 69.8 °F 69.8 °F 100% 30.05 in 3.0 mi South 8.1 mph - N/A   Overcast
12:35 AM 69.8 °F 69.8 °F 100% 30.05 in 3.0 mi South 4.6 mph - N/A   Overcast
12:55 AM 69.8 °F 69.8 °F 100% 30.05 in 3.0 mi South 4.6 mph - N/A   Overcast
1:15 AM 69.8 °F 69.8 °F 100% 30.04 in 3.0 mi Calm Calm - N/A   Overcast
1:35 AM 69.8 °F 69.8 °F 100% 30.04 in 2.0 mi Calm Calm - N/A   Overcast
1:55 AM 69.8 °F 69.8 °F 100% 30.03 in 0.8 mi South 3.5 mph - N/A   Overcast
2:15 AM 69.8 °F 69.8 °F 100% 30.03 in 0.5 mi South 3.5 mph - N/A Fog Fog
2:35 AM 69.8 °F 68.0 °F 94% 30.02 in 0.5 mi Calm Calm - N/A Fog Fog
2:55 AM 69.8 °F 69.8 °F 100% 30.03 in 0.5 mi Calm Calm - N/A Fog Fog
3:15 AM 69.8 °F 69.8 °F 100% 30.03 in 1.2 mi Calm Calm - N/A   Overcast
3:35 AM 69.8 °F 69.8 °F 100% 30.03 in 1.8 mi Calm Calm - N/A   Overcast
3:55 AM 69.8 °F 69.8 °F 100% 30.04 in 2.0 mi SW 5.8 mph - N/A   Overcast
4:15 AM 69.8 °F 69.8 °F 100% 30.03 in 0.8 mi SW 3.5 mph - N/A   Overcast
4:35 AM 69.8 °F 69.8 °F 100% 30.03 in 0.2 mi Calm Calm - N/A Fog Fog
4:55 AM 69.8 °F 69.8 °F 100% 30.02 in 0.5 mi Calm Calm - N/A Fog Fog
5:15 AM 69.8 °F 69.8 °F 100% 30.01 in 1.5 mi Calm Calm - N/A   Overcast
5:35 AM 69.8 °F 69.8 °F 100% 30.02 in 1.2 mi Calm Calm - N/A   Overcast
5:55 AM 69.8 °F 69.8 °F 100% 30.03 in 1.0 mi Calm Calm - N/A   Overcast
6:15 AM 69.8 °F 69.8 °F 100% 30.04 in 0.8 mi South 4.6 mph - N/A Rain Rain
6:35 AM 69.8 °F 69.8 °F 100% 30.04 in 0.8 mi SSE 6.9 mph - N/A Rain Rain
6:55 AM 69.8 °F 69.8 °F 100% 30.06 in 0.5 mi Calm Calm - N/A Rain Rain
7:15 AM 69.8 °F 69.8 °F 100% 30.07 in 0.2 mi WSW 3.5 mph - N/A Rain Light Rain
7:35 AM 69.8 °F 69.8 °F 100% 30.07 in 0.2 mi SSE 5.8 mph - N/A Rain Light Rain
7:55 AM 69.8 °F 69.8 °F 100% 30.08 in 0.2 mi South 8.1 mph - N/A Rain Light Rain
8:15 AM 69.8 °F 69.8 °F 100% 30.08 in 0.2 mi South 8.1 mph - N/A Rain Rain
8:35 AM 69.8 °F 69.8 °F 100% 30.08 in 0.2 mi South 5.8 mph - N/A Rain Light Rain
8:55 AM 69.8 °F 69.8 °F 100% 30.09 in 1.2 mi Calm Calm - N/A   Overcast
9:15 AM 71.6 °F 69.8 °F 94% 30.09 in 1.8 mi South 5.8 mph - N/A   Overcast
9:35 AM 69.8 °F 69.8 °F 100% 30.10 in 2.5 mi Calm Calm - N/A   Overcast
9:55 AM 71.6 °F 69.8 °F 94% 30.10 in 2.5 mi Calm Calm - N/A   Overcast
10:15 AM 69.8 °F 69.8 °F 100% 30.11 in 3.0 mi NW 9.2 mph 17.3 mph N/A   Overcast
10:35 AM 64.4 °F 64.4 °F 100% 30.12 in 7.0 mi North 10.4 mph 16.1 mph N/A Rain Rain
10:55 AM 64.4 °F 62.6 °F 94% 30.11 in 7.0 mi North 8.1 mph - N/A Rain Light Rain
11:15 AM 66.2 °F 64.4 °F 94% 30.10 in 5.0 mi North 9.2 mph 17.3 mph 0.04 in Rain Light Rain
11:35 AM 64.4 °F 64.4 °F 100% 30.10 in 4.0 mi North 10.4 mph 16.1 mph 0.04 in   Overcast
11:55 AM 64.4 °F 62.6 °F 94% 30.09 in 3.0 mi North 13.8 mph 17.3 mph 0.10 in Rain Heavy Rain
12:15 PM 62.6 °F 62.6 °F 100% 30.09 in 10.0 mi North 11.5 mph 17.3 mph N/A Rain Light Rain
12:35 PM 62.6 °F 60.8 °F 94% 30.09 in 10.0 mi NNE 11.5 mph 23.0 mph 0.01 in Rain Rain
1:15 PM 64.4 °F 62.6 °F 94% 30.08 in 7.0 mi NNE 11.5 mph - N/A   Overcast
1:35 PM 64.4 °F 60.8 °F 88% 30.08 in 7.0 mi NNE 13.8 mph 17.3 mph N/A   Overcast
1:55 PM 64.4 °F 60.8 °F 88% 30.07 in 7.0 mi North 10.4 mph 16.1 mph N/A   Overcast
2:15 PM 62.6 °F 59.0 °F 88% 30.07 in 7.0 mi North 16.1 mph 19.6 mph N/A   Overcast
2:35 PM 62.6 °F 59.0 °F 88% 30.08 in 7.0 mi North 9.2 mph 19.6 mph N/A   Overcast
2:55 PM 62.6 °F 57.2 °F 82% 30.06 in 10.0 mi NE 11.5 mph 18.4 mph N/A   Overcast
3:15 PM 62.6 °F 57.2 °F 82% 30.06 in 10.0 mi NNE 12.7 mph 17.3 mph N/A Rain Light Rain
3:35 PM 62.6 °F 57.2 °F 82% 30.07 in 10.0 mi North 11.5 mph - N/A   Drizzle
4:55 PM 60.8 °F 59.0 °F 94% 30.06 in 10.0 mi NNE 10.4 mph - 0.07 in Rain Light Rain
5:15 PM 60.8 °F 59.0 °F 94% 30.05 in 7.0 mi NNE 9.2 mph - N/A   Overcast
5:35 PM 60.8 °F 59.0 °F 94% 30.05 in 7.0 mi ENE 10.4 mph 17.3 mph N/A   Overcast
5:55 PM 60.8 °F 59.0 °F 94% 30.06 in 7.0 mi NNE 5.8 mph - N/A   Overcast
6:15 PM 60.8 °F 59.0 °F 94% 30.05 in 7.0 mi NE 13.8 mph 23.0 mph N/A   Overcast
6:35 PM 60.8 °F 59.0 °F 94% 30.06 in 10.0 mi East 4.6 mph - N/A   Overcast
6:55 PM 60.8 °F 59.0 °F 94% 30.07 in 7.0 mi ENE 9.2 mph - N/A   Overcast
7:15 PM 60.8 °F 57.2 °F 88% 30.07 in 10.0 mi ENE 9.2 mph - N/A   Overcast
7:35 PM 60.8 °F 57.2 °F 88% 30.08 in 10.0 mi NE 9.2 mph - N/A   Light Drizzle
7:55 PM 60.8 °F 57.2 °F 88% 30.08 in 7.0 mi NE 8.1 mph - N/A   Overcast
8:15 PM 60.8 °F 57.2 °F 88% 30.07 in 10.0 mi NE 9.2 mph - N/A   Overcast
8:35 PM 60.8 °F 57.2 °F 88% 30.07 in 7.0 mi ENE 6.9 mph - N/A   Overcast
8:55 PM 60.8 °F 55.4 °F 82% 30.07 in 7.0 mi ENE 6.9 mph - N/A   Overcast
9:15 PM 60.8 °F 55.4 °F 82% 30.06 in 10.0 mi ENE 6.9 mph - N/A   Overcast
9:35 PM 60.8 °F 55.4 °F 82% 30.06 in 10.0 mi East 8.1 mph - N/A   Overcast
9:55 PM 60.8 °F 55.4 °F 82% 30.07 in 10.0 mi ENE 4.6 mph - N/A   Overcast
10:15 PM 60.8 °F 55.4 °F 82% 30.07 in 7.0 mi NNE 6.9 mph - N/A   Overcast
10:35 PM 60.8 °F 57.2 °F 88% 30.06 in 10.0 mi North 5.8 mph - N/A   Overcast
11:15 PM 60.8 °F 57.2 °F 88% 30.05 in 10.0 mi NE 5.8 mph - N/A   Overcast
11:35 PM 60.8 °F 57.2 °F 88% 30.05 in 10.0 mi NNE 5.8 mph - N/A   Overcast
11:55 PM 60.8 °F 57.2 °F 88% 30.05 in 10.0 mi North 5.8 mph - N/A   Overcast